TAIP22 YMES-YSNW

Flight info

Callsign TAIP22
Flight time 2h 9m
Altitude 7000
Route YMCO/N0111F060 DCT YMER DCT YMRY/N0110F070
Aircraft C172/L-SFG/C

Departure

Time 2026-04-17 10:33
Airport RAAF Base East Sale (YMES)

Arrival

Time 2026-04-17 12:43
Airport Naval Air Station Nowra - HMAS Albatross (YSNW)
Time Latitude Longitude Altitude Speed Heading
2026-04-17 10:27 -38.09877 147.13338 31 ft 0 kts 188°
2026-04-17 10:32 -38.09878 147.13341 44 ft 2 kts 184°
2026-04-17 10:32 -38.09897 147.13446 96 ft 31 kts 108°
2026-04-17 10:33 -38.09927 147.13882 253 ft 72 kts 85°
2026-04-17 10:33 -38.09954 147.14565 486 ft 80 kts 103°
2026-04-17 10:33 -38.10007 147.15358 593 ft 92 kts 94°
2026-04-17 10:33 -38.10055 147.16109 762 ft 84 kts 101°
2026-04-17 10:34 -38.10147 147.16725 1019 ft 64 kts 123°
2026-04-17 10:34 -38.10196 147.17337 1014 ft 92 kts 100°
2026-04-17 10:34 -38.10210 147.18155 1209 ft 87 kts 96°
2026-04-17 10:34 -38.10287 147.18892 1382 ft 89 kts 116°
2026-04-17 10:35 -38.10493 147.19672 1542 ft 97 kts 117°
2026-04-17 10:35 -38.10644 147.20512 1786 ft 94 kts 105°
2026-04-17 10:35 -38.10730 147.21343 1981 ft 96 kts 110°
2026-04-17 10:35 -38.10748 147.22224 2125 ft 108 kts 83°
2026-04-17 10:36 -38.10531 147.23097 2384 ft 96 kts 72°
2026-04-17 10:36 -38.10362 147.23944 2425 ft 101 kts 88°
2026-04-17 10:36 -38.10264 147.24757 2522 ft 92 kts 90°
2026-04-17 10:36 -38.10217 147.25531 2505 ft 84 kts 99°
2026-04-17 10:37 -38.10152 147.26302 2493 ft 90 kts 85°
2026-04-17 10:37 -38.09953 147.27068 2497 ft 91 kts 75°
2026-04-17 10:37 -38.09738 147.27826 2495 ft 91 kts 74°
2026-04-17 10:37 -38.09519 147.28584 2492 ft 91 kts 73°
2026-04-17 10:38 -38.09300 147.29343 2491 ft 91 kts 74°
2026-04-17 10:38 -38.09083 147.30100 2491 ft 91 kts 74°
2026-04-17 10:38 -38.08868 147.30856 2491 ft 91 kts 74°
2026-04-17 10:38 -38.08676 147.31619 2492 ft 90 kts 82°
2026-04-17 10:39 -38.08555 147.32393 2490 ft 89 kts 87°
2026-04-17 10:39 -38.08450 147.33180 2489 ft 90 kts 87°
2026-04-17 10:39 -38.08348 147.33962 2488 ft 91 kts 88°
2026-04-17 10:39 -38.08241 147.34752 2487 ft 91 kts 87°
2026-04-17 10:40 -38.08133 147.35545 2486 ft 91 kts 87°
2026-04-17 10:40 -38.08024 147.36337 2482 ft 90 kts 87°
2026-04-17 10:40 -38.07917 147.37129 2479 ft 91 kts 88°
2026-04-17 10:40 -38.07809 147.37929 2476 ft 91 kts 88°
2026-04-17 10:41 -38.07701 147.38718 2474 ft 91 kts 87°
2026-04-17 10:41 -38.07484 147.39476 2477 ft 92 kts 51°
2026-04-17 10:41 -38.07153 147.40170 2475 ft 92 kts 58°
2026-04-17 10:41 -38.06921 147.40916 2478 ft 90 kts 85°
2026-04-17 10:42 -38.06805 147.41690 2478 ft 90 kts 84°
2026-04-17 10:42 -38.06661 147.42473 2479 ft 90 kts 82°
2026-04-17 10:42 -38.06511 147.43247 2481 ft 90 kts 82°
2026-04-17 10:42 -38.06362 147.44022 2482 ft 90 kts 82°
2026-04-17 10:43 -38.06211 147.44801 2484 ft 90 kts 82°
2026-04-17 10:43 -38.06064 147.45573 2484 ft 90 kts 81°
2026-04-17 10:43 -38.05912 147.46352 2487 ft 91 kts 81°
2026-04-17 10:43 -38.05763 147.47133 2488 ft 91 kts 83°
2026-04-17 10:44 -38.05611 147.47914 2486 ft 91 kts 82°
2026-04-17 10:44 -38.05461 147.48702 2483 ft 91 kts 82°
2026-04-17 10:44 -38.05310 147.49489 2481 ft 92 kts 82°
2026-04-17 10:44 -38.05157 147.50285 2480 ft 93 kts 82°
2026-04-17 10:45 -38.05002 147.51079 2481 ft 92 kts 82°
2026-04-17 10:45 -38.04847 147.51872 2468 ft 96 kts 84°
2026-04-17 10:45 -38.04675 147.52824 2462 ft 122 kts 81°
2026-04-17 10:45 -38.04464 147.53963 2472 ft 143 kts 79°
2026-04-17 10:46 -38.04213 147.55223 2485 ft 147 kts 78°
2026-04-17 10:46 -38.03971 147.56474 2484 ft 145 kts 79°
2026-04-17 10:46 -38.03730 147.57715 2481 ft 145 kts 79°
2026-04-17 10:46 -38.03455 147.58946 2477 ft 146 kts 74°
2026-04-17 10:47 -38.03119 147.60159 2475 ft 147 kts 73°
2026-04-17 10:47 -38.02779 147.61379 2475 ft 147 kts 73°
2026-04-17 10:47 -38.02435 147.62619 2473 ft 147 kts 73°
2026-04-17 10:47 -38.02098 147.63843 2471 ft 148 kts 73°
2026-04-17 10:48 -38.01762 147.65083 2473 ft 148 kts 72°
2026-04-17 10:48 -38.01435 147.66325 2475 ft 148 kts 73°
2026-04-17 10:48 -38.01114 147.67551 2474 ft 147 kts 73°
2026-04-17 10:48 -38.00790 147.68782 2474 ft 147 kts 73°
2026-04-17 10:49 -38.00462 147.70023 2476 ft 147 kts 73°
2026-04-17 10:49 -38.00142 147.71239 2476 ft 146 kts 73°
2026-04-17 10:49 -37.99818 147.72467 2471 ft 146 kts 73°
2026-04-17 10:49 -37.99493 147.73703 2469 ft 147 kts 73°
2026-04-17 10:50 -37.99170 147.74918 2471 ft 147 kts 73°
2026-04-17 10:50 -37.98843 147.76138 2471 ft 147 kts 73°
2026-04-17 10:50 -37.98515 147.77367 2472 ft 146 kts 73°
2026-04-17 10:50 -37.98188 147.78589 2473 ft 146 kts 73°
2026-04-17 10:51 -37.97860 147.79817 2475 ft 146 kts 73°
2026-04-17 10:51 -37.97536 147.81030 2470 ft 146 kts 73°
2026-04-17 10:51 -37.97208 147.82262 2468 ft 147 kts 73°
2026-04-17 10:51 -37.96881 147.83490 2467 ft 147 kts 73°
2026-04-17 10:52 -37.96558 147.84712 2467 ft 146 kts 73°
2026-04-17 10:52 -37.96231 147.85947 2466 ft 146 kts 73°
2026-04-17 10:52 -37.95913 147.87166 2464 ft 146 kts 73°
2026-04-17 10:52 -37.95591 147.88396 2467 ft 147 kts 73°
2026-04-17 10:53 -37.95269 147.89624 2467 ft 147 kts 73°
2026-04-17 10:53 -37.94949 147.90849 2471 ft 146 kts 73°
2026-04-17 10:53 -37.94632 147.92073 2473 ft 144 kts 73°
2026-04-17 10:53 -37.94327 147.93269 2475 ft 144 kts 74°
2026-04-17 10:54 -37.94014 147.94490 2473 ft 145 kts 73°
2026-04-17 10:54 -37.93702 147.95702 2473 ft 145 kts 73°
2026-04-17 10:54 -37.93391 147.96909 2473 ft 144 kts 73°
2026-04-17 10:54 -37.93079 147.98111 2470 ft 145 kts 73°
2026-04-17 10:55 -37.92758 147.99324 2467 ft 146 kts 73°
2026-04-17 10:55 -37.92433 148.00555 2466 ft 146 kts 73°
2026-04-17 10:55 -37.92110 148.01769 2470 ft 144 kts 73°
2026-04-17 10:55 -37.91790 148.02965 2472 ft 143 kts 73°
2026-04-17 10:56 -37.91476 148.04158 2472 ft 143 kts 73°
2026-04-17 10:56 -37.91160 148.05374 2472 ft 145 kts 73°
2026-04-17 10:56 -37.90849 148.06590 2471 ft 145 kts 73°
2026-04-17 10:56 -37.90541 148.07808 2471 ft 145 kts 73°
2026-04-17 10:57 -37.90233 148.09024 2467 ft 146 kts 73°
2026-04-17 10:57 -37.89922 148.10257 2466 ft 146 kts 73°
2026-04-17 10:57 -37.89598 148.11487 2466 ft 147 kts 72°
2026-04-17 10:57 -37.89273 148.12720 2466 ft 148 kts 73°
2026-04-17 10:58 -37.88944 148.13950 2468 ft 148 kts 73°
2026-04-17 10:58 -37.88611 148.15179 2474 ft 146 kts 73°
2026-04-17 10:58 -37.88276 148.16382 2479 ft 144 kts 73°
2026-04-17 10:58 -37.87941 148.17575 2476 ft 146 kts 73°
2026-04-17 10:59 -37.87602 148.18794 2480 ft 147 kts 73°
2026-04-17 10:59 -37.87258 148.20032 2478 ft 148 kts 73°
2026-04-17 10:59 -37.86913 148.21257 2481 ft 147 kts 73°
2026-04-17 10:59 -37.86570 148.22467 2482 ft 145 kts 73°
2026-04-17 11:00 -37.86235 148.23668 2482 ft 145 kts 73°
2026-04-17 11:00 -37.85909 148.24876 2482 ft 146 kts 73°
2026-04-17 11:00 -37.85588 148.26091 2485 ft 145 kts 73°
2026-04-17 11:00 -37.85272 148.27316 2484 ft 145 kts 73°
2026-04-17 11:01 -37.84962 148.28529 2483 ft 145 kts 73°
2026-04-17 11:01 -37.84653 148.29741 2484 ft 145 kts 73°
2026-04-17 11:01 -37.84339 148.30965 2484 ft 145 kts 73°
2026-04-17 11:01 -37.84028 148.32175 2482 ft 145 kts 74°
2026-04-17 11:02 -37.83712 148.33385 2483 ft 146 kts 73°
2026-04-17 11:02 -37.83392 148.34598 2484 ft 145 kts 73°
2026-04-17 11:02 -37.83063 148.35825 2483 ft 146 kts 73°
2026-04-17 11:02 -37.82736 148.37041 2483 ft 146 kts 73°
2026-04-17 11:03 -37.82444 148.38258 2479 ft 146 kts 81°
2026-04-17 11:03 -37.82275 148.39534 2478 ft 146 kts 88°
2026-04-17 11:03 -37.82152 148.40811 2476 ft 146 kts 87°
2026-04-17 11:03 -37.82026 148.42094 2473 ft 146 kts 88°
2026-04-17 11:04 -37.81901 148.43373 2473 ft 146 kts 88°
2026-04-17 11:04 -37.81781 148.44649 2474 ft 146 kts 88°
2026-04-17 11:04 -37.81667 148.45917 2474 ft 145 kts 88°
2026-04-17 11:04 -37.81552 148.47185 2472 ft 146 kts 88°
2026-04-17 11:05 -37.81429 148.48469 2474 ft 147 kts 87°
2026-04-17 11:05 -37.81305 148.49747 2477 ft 145 kts 88°
2026-04-17 11:05 -37.81172 148.51016 2475 ft 144 kts 88°
2026-04-17 11:05 -37.81036 148.52266 2472 ft 144 kts 88°
2026-04-17 11:06 -37.80846 148.53531 2469 ft 147 kts 82°
2026-04-17 11:06 -37.80627 148.54793 2488 ft 147 kts 83°
2026-04-17 11:06 -37.80411 148.56067 2508 ft 148 kts 82°
2026-04-17 11:06 -37.80195 148.57335 2517 ft 147 kts 82°
2026-04-17 11:07 -37.79982 148.58600 2521 ft 146 kts 82°
2026-04-17 11:07 -37.79774 148.59856 2521 ft 147 kts 82°
2026-04-17 11:07 -37.79568 148.61122 2521 ft 148 kts 82°
2026-04-17 11:07 -37.79361 148.62410 2519 ft 148 kts 82°
2026-04-17 11:08 -37.79159 148.63683 2520 ft 148 kts 83°
2026-04-17 11:08 -37.78970 148.64964 2518 ft 148 kts 84°
2026-04-17 11:08 -37.78809 148.66269 2515 ft 150 kts 87°
2026-04-17 11:08 -37.78694 148.67567 2518 ft 148 kts 88°
2026-04-17 11:09 -37.78587 148.68861 2516 ft 148 kts 89°
2026-04-17 11:09 -37.78474 148.70148 2517 ft 148 kts 88°
2026-04-17 11:09 -37.78361 148.71439 2518 ft 147 kts 88°
2026-04-17 11:10 -37.78136 148.74019 2517 ft 146 kts 88°
2026-04-17 11:10 -37.78025 148.75297 2519 ft 146 kts 88°
2026-04-17 11:10 -37.77916 148.76573 2520 ft 146 kts 88°
2026-04-17 11:10 -37.77800 148.77838 2518 ft 146 kts 88°
2026-04-17 11:11 -37.77687 148.79118 2514 ft 147 kts 88°
2026-04-17 11:11 -37.77572 148.80418 2515 ft 147 kts 88°
2026-04-17 11:11 -37.77458 148.81700 2515 ft 147 kts 88°
2026-04-17 11:11 -37.77344 148.82993 2514 ft 148 kts 88°
2026-04-17 11:12 -37.77227 148.84280 2513 ft 148 kts 89°
2026-04-17 11:12 -37.77110 148.85567 2514 ft 148 kts 88°
2026-04-17 11:12 -37.76993 148.86855 2515 ft 147 kts 88°
2026-04-17 11:12 -37.76877 148.88142 2516 ft 145 kts 89°
2026-04-17 11:13 -37.76760 148.89410 2511 ft 146 kts 88°
2026-04-17 11:13 -37.76642 148.90695 2510 ft 147 kts 88°
2026-04-17 11:13 -37.76519 148.91986 2507 ft 149 kts 88°
2026-04-17 11:13 -37.76396 148.93286 2508 ft 149 kts 88°
2026-04-17 11:14 -37.76276 148.94579 2508 ft 147 kts 88°
2026-04-17 11:14 -37.76167 148.95865 2507 ft 146 kts 91°
2026-04-17 11:14 -37.76109 148.97142 2511 ft 146 kts 92°
2026-04-17 11:14 -37.76054 148.98427 2511 ft 147 kts 92°
2026-04-17 11:15 -37.76000 148.99727 2513 ft 147 kts 92°
2026-04-17 11:15 -37.75944 149.01021 2510 ft 148 kts 92°
2026-04-17 11:15 -37.75887 149.02318 2507 ft 148 kts 92°
2026-04-17 11:15 -37.75826 149.03618 2504 ft 148 kts 92°
2026-04-17 11:16 -37.75769 149.04919 2503 ft 148 kts 92°
2026-04-17 11:16 -37.75708 149.06229 2500 ft 148 kts 93°
2026-04-17 11:16 -37.75649 149.07532 2503 ft 148 kts 92°
2026-04-17 11:16 -37.75592 149.08829 2503 ft 147 kts 92°
2026-04-17 11:17 -37.75534 149.10106 2502 ft 147 kts 93°
2026-04-17 11:17 -37.75468 149.11400 2500 ft 147 kts 93°
2026-04-17 11:17 -37.75402 149.12698 2500 ft 148 kts 92°
2026-04-17 11:17 -37.75338 149.13998 2497 ft 149 kts 93°
2026-04-17 11:18 -37.75269 149.15309 2498 ft 149 kts 92°
2026-04-17 11:18 -37.75200 149.16625 2488 ft 150 kts 93°
2026-04-17 11:18 -37.75127 149.17941 2492 ft 151 kts 92°
2026-04-17 11:18 -37.75054 149.19252 2489 ft 150 kts 92°
2026-04-17 11:19 -37.75006 149.20570 2494 ft 147 kts 97°
2026-04-17 11:19 -37.75024 149.21846 2494 ft 146 kts 98°
2026-04-17 11:19 -37.75053 149.23132 2499 ft 147 kts 98°
2026-04-17 11:19 -37.75083 149.24422 2499 ft 146 kts 99°
2026-04-17 11:20 -37.75109 149.25713 2494 ft 147 kts 98°
2026-04-17 11:20 -37.75133 149.27005 2495 ft 147 kts 98°
2026-04-17 11:20 -37.75161 149.28305 2491 ft 146 kts 99°
2026-04-17 11:20 -37.75183 149.29594 2488 ft 147 kts 101°
2026-04-17 11:21 -37.75201 149.30893 2484 ft 148 kts 99°
2026-04-17 11:21 -37.75222 149.32193 2489 ft 148 kts 98°
2026-04-17 11:21 -37.75246 149.33482 2490 ft 146 kts 98°
2026-04-17 11:21 -37.75272 149.34772 2489 ft 147 kts 99°
2026-04-17 11:22 -37.75292 149.36060 2489 ft 147 kts 98°
2026-04-17 11:22 -37.75310 149.37367 2488 ft 147 kts 98°
2026-04-17 11:22 -37.75328 149.38663 2487 ft 148 kts 99°
2026-04-17 11:22 -37.75341 149.39969 2479 ft 149 kts 99°
2026-04-17 11:23 -37.75354 149.41283 2473 ft 150 kts 99°
2026-04-17 11:23 -37.75367 149.42595 2474 ft 150 kts 99°
2026-04-17 11:23 -37.75378 149.43906 2475 ft 149 kts 98°
2026-04-17 11:23 -37.75392 149.45227 2477 ft 148 kts 98°
2026-04-17 11:24 -37.75409 149.46527 2482 ft 148 kts 99°
2026-04-17 11:24 -37.75423 149.47810 2482 ft 147 kts 99°
2026-04-17 11:24 -37.75438 149.49118 2480 ft 148 kts 99°
2026-04-17 11:24 -37.75451 149.50403 2485 ft 147 kts 99°
2026-04-17 11:25 -37.75465 149.51704 2482 ft 148 kts 98°
2026-04-17 11:25 -37.75483 149.53009 2478 ft 148 kts 99°
2026-04-17 11:25 -37.75502 149.54303 2476 ft 149 kts 99°
2026-04-17 11:25 -37.75524 149.55627 2476 ft 149 kts 99°
2026-04-17 11:26 -37.75541 149.56937 2473 ft 150 kts 99°
2026-04-17 11:26 -37.75556 149.58246 2474 ft 149 kts 99°
2026-04-17 11:26 -37.75567 149.59561 2472 ft 148 kts 99°
2026-04-17 11:26 -37.75519 149.60866 2471 ft 154 kts 79°
2026-04-17 11:27 -37.74984 149.62035 2482 ft 153 kts 53°
2026-04-17 11:27 -37.74338 149.63112 2477 ft 154 kts 52°
2026-04-17 11:27 -37.73641 149.64145 2478 ft 155 kts 37°
2026-04-17 11:27 -37.72796 149.64969 2484 ft 153 kts 32°
2026-04-17 11:28 -37.71934 149.65775 2483 ft 153 kts 32°
2026-04-17 11:28 -37.71069 149.66588 2481 ft 153 kts 32°
2026-04-17 11:28 -37.70218 149.67400 2477 ft 154 kts 32°
2026-04-17 11:28 -37.69362 149.68221 2476 ft 154 kts 32°
2026-04-17 11:29 -37.68510 149.69040 2478 ft 154 kts 32°
2026-04-17 11:29 -37.67660 149.69855 2479 ft 153 kts 32°
2026-04-17 11:29 -37.66814 149.70668 2479 ft 152 kts 33°
2026-04-17 11:29 -37.65965 149.71484 2476 ft 153 kts 32°
2026-04-17 11:30 -37.65115 149.72308 2473 ft 154 kts 33°
2026-04-17 11:30 -37.64261 149.73143 2473 ft 154 kts 33°
2026-04-17 11:30 -37.63414 149.73967 2479 ft 154 kts 33°
2026-04-17 11:30 -37.62562 149.74794 2492 ft 154 kts 32°
2026-04-17 11:31 -37.61706 149.75624 2496 ft 155 kts 33°
2026-04-17 11:31 -37.60849 149.76454 2496 ft 156 kts 33°
2026-04-17 11:31 -37.59984 149.77286 2498 ft 156 kts 33°
2026-04-17 11:31 -37.59124 149.78107 2501 ft 155 kts 32°
2026-04-17 11:32 -37.58252 149.78938 2501 ft 154 kts 33°
2026-04-17 11:32 -37.57396 149.79759 2503 ft 154 kts 33°
2026-04-17 11:32 -37.56547 149.80571 2501 ft 154 kts 33°
2026-04-17 11:32 -37.55761 149.81499 2501 ft 156 kts 49°
2026-04-17 11:33 -37.55149 149.82626 2506 ft 156 kts 59°
2026-04-17 11:33 -37.54621 149.83841 2504 ft 156 kts 65°
2026-04-17 11:33 -37.54139 149.85066 2504 ft 156 kts 66°
2026-04-17 11:33 -37.53662 149.86284 2505 ft 156 kts 66°
2026-04-17 11:34 -37.53177 149.87508 2507 ft 155 kts 66°
2026-04-17 11:34 -37.52695 149.88715 2510 ft 154 kts 66°
2026-04-17 11:34 -37.52214 149.89923 2507 ft 154 kts 66°
2026-04-17 11:34 -37.51730 149.91144 2509 ft 154 kts 66°
2026-04-17 11:35 -37.51249 149.92351 2505 ft 155 kts 66°
2026-04-17 11:35 -37.50762 149.93564 2505 ft 155 kts 66°
2026-04-17 11:35 -37.50270 149.94772 2507 ft 156 kts 66°
2026-04-17 11:35 -37.49773 149.95995 2502 ft 157 kts 66°
2026-04-17 11:36 -37.49282 149.97221 2505 ft 157 kts 65°
2026-04-17 11:36 -37.48788 149.98445 2508 ft 156 kts 66°
2026-04-17 11:36 -37.48299 149.99654 2504 ft 155 kts 66°
2026-04-17 11:36 -37.47801 150.00879 2503 ft 156 kts 66°
2026-04-17 11:37 -37.47292 150.02092 2497 ft 158 kts 59°
2026-04-17 11:37 -37.46447 150.02911 2501 ft 150 kts
2026-04-17 11:37 -37.45451 150.03058 2503 ft 141 kts 351°
2026-04-17 11:37 -37.44461 150.03102 2501 ft 142 kts 350°
2026-04-17 11:38 -37.43466 150.03133 2504 ft 142 kts 350°
2026-04-17 11:38 -37.42477 150.03162 2505 ft 142 kts 350°
2026-04-17 11:38 -37.41496 150.03197 2504 ft 143 kts 351°
2026-04-17 11:38 -37.40498 150.03227 2507 ft 143 kts 350°
2026-04-17 11:39 -37.39486 150.03265 2506 ft 143 kts 350°
2026-04-17 11:39 -37.38488 150.03308 2503 ft 143 kts 351°
2026-04-17 11:39 -37.37495 150.03355 2501 ft 144 kts 351°
2026-04-17 11:39 -37.36492 150.03404 2503 ft 143 kts 350°
2026-04-17 11:40 -37.35493 150.03453 2504 ft 144 kts 351°
2026-04-17 11:40 -37.34488 150.03499 2505 ft 144 kts 351°
2026-04-17 11:40 -37.33487 150.03543 2509 ft 143 kts 350°
2026-04-17 11:40 -37.32488 150.03586 2508 ft 144 kts 351°
2026-04-17 11:41 -37.31484 150.03622 2514 ft 144 kts 351°
2026-04-17 11:41 -37.30481 150.03650 2517 ft 143 kts 350°
2026-04-17 11:41 -37.29481 150.03680 2515 ft 142 kts 350°
2026-04-17 11:41 -37.28486 150.03728 2510 ft 143 kts 351°
2026-04-17 11:42 -37.27478 150.03778 2510 ft 143 kts 351°
2026-04-17 11:42 -37.26486 150.03828 2507 ft 142 kts 351°
2026-04-17 11:42 -37.25493 150.03880 2510 ft 142 kts 351°
2026-04-17 11:42 -37.24501 150.03922 2509 ft 142 kts 350°
2026-04-17 11:43 -37.23506 150.03967 2514 ft 142 kts 350°
2026-04-17 11:43 -37.22504 150.04013 2509 ft 143 kts 351°
2026-04-17 11:43 -37.21505 150.04054 2511 ft 144 kts 351°
2026-04-17 11:43 -37.20506 150.04092 2513 ft 144 kts 351°
2026-04-17 11:44 -37.19497 150.04134 2511 ft 144 kts 351°
2026-04-17 11:44 -37.18495 150.04178 2512 ft 144 kts 351°
2026-04-17 11:44 -37.17494 150.04222 2513 ft 144 kts 351°
2026-04-17 11:44 -37.16496 150.04260 2512 ft 144 kts 351°
2026-04-17 11:45 -37.15496 150.04291 2516 ft 143 kts 351°
2026-04-17 11:45 -37.14494 150.04309 2512 ft 141 kts 346°
2026-04-17 11:45 -37.13521 150.04216 2515 ft 140 kts 343°
2026-04-17 11:45 -37.12653 150.03851 2521 ft 126 kts 312°
2026-04-17 11:46 -37.11895 150.03278 2518 ft 127 kts 319°
2026-04-17 11:46 -37.11090 150.02795 2517 ft 128 kts 321°
2026-04-17 11:46 -37.10290 150.02304 2517 ft 128 kts 319°
2026-04-17 11:46 -37.09489 150.01802 2518 ft 128 kts 320°
2026-04-17 11:47 -37.08693 150.01308 2518 ft 127 kts 320°
2026-04-17 11:47 -37.07894 150.00816 2519 ft 128 kts 320°
2026-04-17 11:47 -37.07095 150.00322 2518 ft 128 kts 320°
2026-04-17 11:47 -37.06295 149.99823 2519 ft 128 kts 320°
2026-04-17 11:48 -37.05490 149.99332 2520 ft 129 kts 320°
2026-04-17 11:48 -37.04677 149.98827 2520 ft 129 kts 320°
2026-04-17 11:48 -37.03870 149.98329 2521 ft 129 kts 320°
2026-04-17 11:48 -37.03066 149.97838 2521 ft 129 kts 320°
2026-04-17 11:49 -37.02262 149.97336 2521 ft 129 kts 319°
2026-04-17 11:49 -37.01447 149.96825 2520 ft 130 kts 320°
2026-04-17 11:49 -37.00634 149.96324 2521 ft 130 kts 320°
2026-04-17 11:49 -36.99826 149.95830 2516 ft 129 kts 320°
2026-04-17 11:50 -36.99010 149.95323 2519 ft 130 kts 319°
2026-04-17 11:50 -36.98199 149.94820 2523 ft 130 kts 320°
2026-04-17 11:50 -36.97394 149.94315 2522 ft 129 kts 321°
2026-04-17 11:50 -36.96591 149.93817 2522 ft 129 kts 322°
2026-04-17 11:51 -36.95776 149.93311 2525 ft 129 kts 321°
2026-04-17 11:51 -36.94970 149.92813 2525 ft 130 kts 322°
2026-04-17 11:51 -36.94161 149.92314 2526 ft 129 kts 321°
2026-04-17 11:51 -36.93349 149.91811 2523 ft 129 kts 321°
2026-04-17 11:52 -36.92540 149.91315 2525 ft 130 kts 321°
2026-04-17 11:52 -36.91724 149.90802 2525 ft 130 kts 321°
2026-04-17 11:52 -36.90885 149.90367 2523 ft 136 kts 337°
2026-04-17 11:52 -36.89892 149.90381 2523 ft 146 kts
2026-04-17 11:53 -36.88891 149.90695 2521 ft 148 kts
2026-04-17 11:53 -36.87890 149.90945 2525 ft 146 kts
2026-04-17 11:53 -36.86897 149.91188 2520 ft 145 kts
2026-04-17 11:53 -36.85892 149.91429 2528 ft 145 kts
2026-04-17 11:54 -36.84904 149.91663 2526 ft 144 kts
2026-04-17 11:54 -36.83922 149.91899 2529 ft 143 kts
2026-04-17 11:54 -36.82931 149.92143 2527 ft 143 kts
2026-04-17 11:54 -36.81952 149.92378 2535 ft 142 kts
2026-04-17 11:55 -36.80979 149.92612 2533 ft 142 kts
2026-04-17 11:55 -36.80003 149.92850 2533 ft 142 kts
2026-04-17 11:55 -36.79025 149.93083 2534 ft 143 kts
2026-04-17 11:55 -36.78041 149.93327 2533 ft 145 kts
2026-04-17 11:56 -36.77050 149.93567 2531 ft 146 kts
2026-04-17 11:56 -36.76046 149.93810 2527 ft 146 kts
2026-04-17 11:56 -36.75034 149.94052 2524 ft 146 kts
2026-04-17 11:56 -36.74038 149.94296 2524 ft 146 kts
2026-04-17 11:57 -36.73040 149.94533 2528 ft 145 kts
2026-04-17 11:57 -36.72154 149.94748 2527 ft 144 kts
2026-04-17 11:57 -36.71174 149.94984 2528 ft 143 kts
2026-04-17 11:57 -36.70205 149.95221 2527 ft 142 kts
2026-04-17 11:58 -36.69231 149.95459 2525 ft 142 kts
2026-04-17 11:58 -36.68261 149.95689 2534 ft 141 kts
2026-04-17 11:58 -36.67283 149.95927 2532 ft 141 kts
2026-04-17 11:58 -36.66316 149.96162 2536 ft 142 kts
2026-04-17 11:59 -36.65345 149.96397 2532 ft 143 kts
2026-04-17 11:59 -36.64357 149.96635 2540 ft 143 kts
2026-04-17 11:59 -36.63382 149.96863 2538 ft 142 kts
2026-04-17 11:59 -36.62410 149.97098 2533 ft 143 kts
2026-04-17 12:00 -36.61424 149.97333 2532 ft 143 kts
2026-04-17 12:00 -36.60449 149.97568 2527 ft 142 kts
2026-04-17 12:00 -36.59472 149.97804 2529 ft 142 kts
2026-04-17 12:00 -36.58501 149.98038 2529 ft 143 kts
2026-04-17 12:01 -36.57529 149.98276 2529 ft 142 kts
2026-04-17 12:01 -36.56558 149.98511 2532 ft 141 kts
2026-04-17 12:01 -36.55589 149.98744 2525 ft 141 kts
2026-04-17 12:01 -36.54616 149.98982 2529 ft 141 kts
2026-04-17 12:02 -36.53659 149.99202 2532 ft 140 kts
2026-04-17 12:02 -36.52701 149.99432 2534 ft 139 kts
2026-04-17 12:02 -36.51754 149.99660 2530 ft 139 kts
2026-04-17 12:02 -36.50799 149.99892 2531 ft 139 kts
2026-04-17 12:03 -36.49852 150.00119 2533 ft 139 kts
2026-04-17 12:03 -36.48888 150.00352 2536 ft 139 kts
2026-04-17 12:03 -36.47934 150.00583 2533 ft 139 kts
2026-04-17 12:03 -36.46982 150.00812 2532 ft 140 kts
2026-04-17 12:04 -36.46025 150.01045 2534 ft 140 kts
2026-04-17 12:04 -36.45070 150.01280 2536 ft 140 kts
2026-04-17 12:04 -36.44097 150.01514 2531 ft 142 kts
2026-04-17 12:04 -36.43125 150.01747 2532 ft 143 kts
2026-04-17 12:05 -36.42139 150.01984 2528 ft 142 kts
2026-04-17 12:05 -36.41166 150.02219 2530 ft 142 kts
2026-04-17 12:05 -36.40195 150.02452 2528 ft 142 kts
2026-04-17 12:05 -36.39221 150.02686 2527 ft 142 kts
2026-04-17 12:06 -36.38246 150.02919 2670 ft 143 kts
2026-04-17 12:06 -36.37268 150.03154 2843 ft 143 kts
2026-04-17 12:06 -36.36282 150.03392 3025 ft 142 kts
2026-04-17 12:06 -36.35315 150.03626 3132 ft 142 kts
2026-04-17 12:07 -36.34340 150.03857 3179 ft 140 kts
2026-04-17 12:07 -36.33385 150.04091 3190 ft 140 kts
2026-04-17 12:07 -36.32426 150.04321 3199 ft 140 kts
2026-04-17 12:07 -36.31471 150.04550 3198 ft 139 kts
2026-04-17 12:08 -36.30506 150.04776 3207 ft 139 kts
2026-04-17 12:08 -36.29556 150.04996 3202 ft 138 kts
2026-04-17 12:08 -36.28606 150.05229 3207 ft 139 kts
2026-04-17 12:08 -36.27659 150.05450 3214 ft 138 kts
2026-04-17 12:09 -36.26707 150.05673 3213 ft 137 kts
2026-04-17 12:09 -36.25777 150.05894 3210 ft 137 kts
2026-04-17 12:09 -36.24830 150.06125 3206 ft 137 kts
2026-04-17 12:09 -36.23886 150.06351 3203 ft 138 kts
2026-04-17 12:10 -36.22948 150.06580 3201 ft 139 kts
2026-04-17 12:10 -36.21987 150.06816 3205 ft 140 kts
2026-04-17 12:10 -36.21029 150.07045 3203 ft 140 kts
2026-04-17 12:10 -36.20073 150.07274 3208 ft 140 kts
2026-04-17 12:11 -36.19115 150.07501 3212 ft 139 kts
2026-04-17 12:11 -36.18162 150.07727 3209 ft 139 kts
2026-04-17 12:11 -36.17209 150.07953 3203 ft 139 kts
2026-04-17 12:12 -36.15293 150.08406 3205 ft 139 kts
2026-04-17 12:12 -36.14330 150.08638 3208 ft 139 kts
2026-04-17 12:12 -36.13380 150.08862 3210 ft 138 kts
2026-04-17 12:12 -36.12437 150.09085 3206 ft 137 kts
2026-04-17 12:13 -36.11495 150.09312 3203 ft 138 kts
2026-04-17 12:13 -36.10551 150.09537 3205 ft 138 kts
2026-04-17 12:13 -36.09602 150.09760 3208 ft 138 kts
2026-04-17 12:13 -36.08659 150.09990 3208 ft 138 kts
2026-04-17 12:14 -36.07716 150.10219 3205 ft 138 kts
2026-04-17 12:14 -36.06773 150.10442 3215 ft 137 kts
2026-04-17 12:14 -36.05835 150.10661 3217 ft 136 kts
2026-04-17 12:14 -36.04901 150.10887 3211 ft 135 kts
2026-04-17 12:15 -36.03975 150.11104 3213 ft 136 kts
2026-04-17 12:15 -36.03029 150.11325 3214 ft 136 kts
2026-04-17 12:15 -36.02098 150.11549 3209 ft 136 kts
2026-04-17 12:15 -36.01162 150.11768 3215 ft 137 kts
2026-04-17 12:16 -36.00228 150.11984 3219 ft 135 kts
2026-04-17 12:16 -35.99307 150.12199 3217 ft 134 kts
2026-04-17 12:16 -35.98380 150.12419 3212 ft 134 kts
2026-04-17 12:16 -35.97464 150.12640 3214 ft 135 kts
2026-04-17 12:17 -35.96542 150.12860 3217 ft 134 kts
2026-04-17 12:17 -35.95612 150.13081 3217 ft 134 kts
2026-04-17 12:17 -35.94695 150.13303 3215 ft 133 kts
2026-04-17 12:17 -35.93774 150.13527 3212 ft 134 kts
2026-04-17 12:18 -35.92854 150.13742 3211 ft 135 kts
2026-04-17 12:18 -35.91931 150.13963 3211 ft 135 kts
2026-04-17 12:18 -35.90997 150.14188 3212 ft 135 kts
2026-04-17 12:18 -35.90067 150.14414 3218 ft 136 kts
2026-04-17 12:19 -35.89156 150.14745 3221 ft 137 kts 18°
2026-04-17 12:19 -35.88261 150.15169 3222 ft 135 kts 19°
2026-04-17 12:19 -35.87377 150.15569 3210 ft 135 kts 19°
2026-04-17 12:19 -35.86478 150.15973 3210 ft 136 kts 19°
2026-04-17 12:20 -35.85589 150.16376 3213 ft 136 kts 19°
2026-04-17 12:20 -35.84700 150.16782 3207 ft 136 kts 20°
2026-04-17 12:20 -35.83794 150.17192 3208 ft 137 kts 20°
2026-04-17 12:20 -35.82906 150.17600 3211 ft 138 kts 20°
2026-04-17 12:21 -35.82006 150.18015 3214 ft 137 kts 19°
2026-04-17 12:21 -35.81107 150.18425 3208 ft 137 kts 20°
2026-04-17 12:21 -35.80196 150.18835 3206 ft 137 kts 20°
2026-04-17 12:21 -35.79304 150.19241 3206 ft 138 kts 20°
2026-04-17 12:22 -35.78388 150.19653 3217 ft 139 kts 20°
2026-04-17 12:22 -35.77490 150.20068 3222 ft 138 kts 20°
2026-04-17 12:22 -35.76580 150.20482 3219 ft 137 kts 19°
2026-04-17 12:22 -35.75688 150.20891 3216 ft 137 kts 20°
2026-04-17 12:23 -35.74781 150.21306 3215 ft 138 kts 19°
2026-04-17 12:23 -35.73885 150.21713 3217 ft 137 kts 19°
2026-04-17 12:23 -35.72986 150.22119 3217 ft 136 kts 20°
2026-04-17 12:23 -35.72090 150.22527 3218 ft 136 kts 20°
2026-04-17 12:24 -35.71208 150.22929 3219 ft 136 kts 20°
2026-04-17 12:24 -35.70310 150.23340 3209 ft 137 kts 19°
2026-04-17 12:24 -35.69405 150.23744 3204 ft 139 kts 20°
2026-04-17 12:24 -35.68496 150.24155 3215 ft 139 kts 20°
2026-04-17 12:25 -35.67591 150.24568 3216 ft 138 kts 20°
2026-04-17 12:25 -35.66686 150.24980 3214 ft 137 kts 20°
2026-04-17 12:25 -35.65785 150.25391 3215 ft 138 kts 20°
2026-04-17 12:25 -35.64880 150.25806 3215 ft 140 kts 20°
2026-04-17 12:26 -35.63947 150.26231 3215 ft 145 kts 19°
2026-04-17 12:26 -35.62986 150.26672 3217 ft 149 kts 19°
2026-04-17 12:26 -35.61996 150.27127 3217 ft 153 kts 19°
2026-04-17 12:26 -35.60982 150.27586 3218 ft 155 kts 18°
2026-04-17 12:27 -35.59959 150.28050 3217 ft 155 kts 18°
2026-04-17 12:27 -35.58948 150.28508 3216 ft 155 kts 18°
2026-04-17 12:27 -35.57923 150.28976 3197 ft 161 kts 22°
2026-04-17 12:27 -35.56795 150.29480 3206 ft 178 kts 18°
2026-04-17 12:28 -35.55615 150.30009 3210 ft 184 kts 19°
2026-04-17 12:28 -35.54466 150.30534 3216 ft 186 kts 19°
2026-04-17 12:28 -35.53252 150.31082 3217 ft 186 kts 19°
2026-04-17 12:28 -35.52042 150.31630 3216 ft 185 kts 19°
2026-04-17 12:29 -35.50817 150.32185 3216 ft 185 kts 19°
2026-04-17 12:29 -35.49607 150.32732 3215 ft 185 kts 19°
2026-04-17 12:29 -35.48402 150.33276 3215 ft 185 kts 19°
2026-04-17 12:29 -35.47199 150.33821 3216 ft 185 kts 19°
2026-04-17 12:30 -35.46572 150.34094 3002 ft 180 kts 20°
2026-04-17 12:30 -35.45424 150.34590 3064 ft 170 kts 21°
2026-04-17 12:30 -35.44680 150.34935 3085 ft 167 kts 22°
2026-04-17 12:30 -35.43922 150.35274 3294 ft 168 kts 21°
2026-04-17 12:31 -35.42815 150.35765 3248 ft 166 kts 22°
2026-04-17 12:31 -35.41730 150.36259 3220 ft 166 kts 22°
2026-04-17 12:31 -35.40637 150.36749 3211 ft 168 kts 22°
2026-04-17 12:31 -35.39527 150.37250 3209 ft 168 kts 22°
2026-04-17 12:32 -35.38428 150.37746 3209 ft 168 kts 22°
2026-04-17 12:32 -35.37326 150.38245 3206 ft 168 kts 21°
2026-04-17 12:32 -35.36217 150.38747 3207 ft 169 kts 22°
2026-04-17 12:32 -35.35113 150.39244 3210 ft 168 kts 22°
2026-04-17 12:33 -35.34006 150.39741 3205 ft 167 kts 22°
2026-04-17 12:33 -35.32913 150.40233 3200 ft 168 kts 22°
2026-04-17 12:33 -35.31810 150.40729 3202 ft 169 kts 22°
2026-04-17 12:33 -35.30695 150.41235 3205 ft 170 kts 21°
2026-04-17 12:34 -35.29590 150.41728 3209 ft 169 kts 22°
2026-04-17 12:34 -35.28480 150.42226 3211 ft 168 kts 22°
2026-04-17 12:34 -35.27387 150.42714 3205 ft 168 kts 22°
2026-04-17 12:34 -35.26273 150.43214 3200 ft 169 kts 22°
2026-04-17 12:35 -35.25173 150.43707 3196 ft 169 kts 22°
2026-04-17 12:35 -35.24050 150.44212 3198 ft 170 kts 22°
2026-04-17 12:35 -35.22946 150.44708 3203 ft 169 kts 22°
2026-04-17 12:35 -35.21841 150.45200 3205 ft 167 kts 23°
2026-04-17 12:37 -35.13881 150.47639 3199 ft 168 kts 15°
2026-04-17 12:37 -35.12727 150.47966 3199 ft 168 kts 16°
2026-04-17 12:38 -35.11657 150.48268 3199 ft 168 kts 16°
2026-04-17 12:38 -35.10518 150.48595 3198 ft 169 kts 16°
2026-04-17 12:38 -35.09489 150.48888 3198 ft 170 kts 16°
2026-04-17 12:38 -35.08332 150.49216 3197 ft 170 kts 16°
2026-04-17 12:39 -35.07186 150.49536 3070 ft 168 kts 14°
2026-04-17 12:39 -35.06040 150.49791 2814 ft 166 kts 10°
2026-04-17 12:39 -35.04885 150.49954 2314 ft 168 kts
2026-04-17 12:39 -35.03776 150.50124 2036 ft 154 kts 15°
2026-04-17 12:40 -35.02771 150.50542 1520 ft 155 kts 41°
2026-04-17 12:40 -35.02090 150.51459 1552 ft 133 kts 63°
2026-04-17 12:40 -35.01592 150.52446 1358 ft 141 kts 65°
2026-04-17 12:40 -35.00955 150.53389 1267 ft 150 kts 44°
2026-04-17 12:41 -35.00078 150.54082 1374 ft 148 kts 31°
2026-04-17 12:41 -34.99076 150.54556 1289 ft 159 kts 18°
2026-04-17 12:41 -34.97981 150.54848 1077 ft 166 kts
2026-04-17 12:41 -34.96832 150.54915 837 ft 162 kts 359°
2026-04-17 12:42 -34.95690 150.54869 576 ft 162 kts 355°
2026-04-17 12:42 -34.94669 150.54625 624 ft 139 kts 325°
2026-04-17 12:42 -34.94386 150.53767 676 ft 99 kts 235°
2026-04-17 12:42 -34.94899 150.53722 600 ft 86 kts 135°
2026-04-17 12:43 -34.95127 150.54346 517 ft 70 kts 98°
2026-04-17 12:43 -34.94904 150.54678 464 ft 36 kts 26°
2026-04-17 12:43 -34.94766 150.54747 390 ft 10 kts 348°
2026-04-17 12:43 -34.94704 150.54719 393 ft 12 kts 313°
2026-04-17 12:44 -34.94587 150.54535 454 ft 45 kts 220°
2026-04-17 12:44 -34.94928 150.54364 544 ft 63 kts 147°
2026-04-17 12:44 -34.95192 150.54839 683 ft 71 kts 120°
2026-04-17 12:44 -34.95643 150.55124 609 ft 93 kts 199°
2026-04-17 12:45 -34.95686 150.54454 571 ft 97 kts 325°
2026-04-17 12:45 -34.95095 150.54376 571 ft 71 kts 27°
2026-04-17 12:45 -34.94858 150.54762 526 ft 62 kts 77°
2026-04-17 12:45 -34.94924 150.55211 463 ft 43 kts 223°
2026-04-17 12:46 -34.95040 150.54842 488 ft 48 kts 334°
2026-04-17 12:46 -34.94758 150.54712 467 ft 39 kts 45°
2026-04-17 12:46 -34.94767 150.54874 463 ft 44 kts 218°
2026-04-17 12:46 -34.94912 150.54434 383 ft 71 kts 277°
2026-04-17 12:47 -34.94864 150.53868 391 ft 54 kts 278°
2026-04-17 12:47 -34.94839 150.53523 372 ft 24 kts 275°
2026-04-17 12:47 -34.94834 150.53436 365 ft 2 kts 253°
2026-04-17 12:47 -34.94828 150.53404 366 ft 6 kts 315°
2026-04-17 12:48 -34.94783 150.53391 365 ft 5 kts 350°
2026-04-17 12:48 -34.94765 150.53386 365 ft 0 kts 342°